Simultaneous Nadir Overpasses (SNOs) Predictions

Prediction of SNOs between AQUA and GOES-15 Satellite Orbit:

Table of predicted SNOs for the next 14.0 days since TLE Epoch: 6/6/2015
Index Date Time (AQUA) AQUA Lat,Lon GOES-15 Lat,Lon Distance(km) Time Diff (sec)
1 06/06/2015 22:29:45 0.29,-133.46 0.01,-134.85 158.16 80
2 06/07/2015 10:51:02 0.75,-138.63 -0.02,-134.84 429.65 80
3 06/08/2015 22:17:34 0.89,-130.50 0.00,-134.77 484.51 80
4 06/09/2015 10:38:51 0.15,-135.67 -0.02,-134.76 103.44 80
5 06/11/2015 10:26:39 -0.42,-132.71 -0.02,-134.67 222.40 80
6 06/11/2015 22:48:03 -0.69,-137.90 0.03,-134.63 372.50 80
7 06/13/2015 22:35:52 -0.05,-134.95 0.03,-134.53 47.30 80
8 06/15/2015 22:23:40 0.55,-131.99 0.03,-134.43 277.47 80
9 06/16/2015 10:44:56 0.53,-137.15 -0.05,-134.42 310.78 80
10 06/18/2015 10:32:44 -0.09,-134.19 -0.05,-134.31 13.73 80




NCC Satellite Simultaneous Nadir Overpasses (SNOs) Prediction Service
